Home > Weather > Udon Thani > Past weeks

Flag for Thailand Past Weather in Udon Thani, Thailand — Yesterday and Last 2 Weeks

Now
82 °F

Light rain. Broken clouds.


Feels Like: 91 °F
Forecast: 76 / 83 °F
Wind: 7 mph from West

Location: Udon Thani Airport

Current Time: Jul 2, 2016 at 12:55:09 PM

Latest Report: Jul 2, 2016 at 12:00 PM


Visibility: N/A

Pressure: 29.80 "Hg

Humidity: 84%

Dew Point: 77 °F

Location of Udon ThaniLocation

Past Weather in Udon Thani — Graph

°F

Udon Thani Temperature Yesterday

Maximum temperature yesterday: 86 °F (at 12:00 PM)
Minimum temperature yesterday: 77 °F (at 3:00 AM)
Average temperature yesterday: 82 °F

High & Low Weather Summary for the Past Weeks

 TemperatureHumidityPressure
High95 °F (Jun 19, 2:00 PM)100% (Jun 17, 10:00 PM)29.89 "Hg (Jun 17, 10:00 PM)
Low75 °F (Jun 17, 10:00 PM)50% (Jun 19, 3:00 PM)29.59 "Hg (Jun 27, 5:00 PM)
Average83 °F83%29.74 "Hg
* Reported Jun 17 11:00 AM — Jul 2 11:00 AM, Udon Thani, Weather by CustomWeather, © 2016

Note: Actual official high and low records may vary slightly from our data, if they occured in-between our weather recording intervals... More about our weather records

Advertising

Udon Thani Weather History for the Previous 24 Hours

Scroll right to see more
 ConditionsComfort  
Time TempWeatherWind HumidityBarometerVisibility
11:00 AM
Sat, Jul 2
84 °FBroken clouds.6 mph79%29.83 "HgN/A
10:00 AM82 °FBroken clouds.5 mph84%29.83 "HgN/A
9:00 AM82 °FBroken clouds.2 mph89%29.83 "HgN/A
8:00 AM81 °FBroken clouds.3 mph89%29.83 "HgN/A
7:00 AM79 °FPartly sunny.3 mph94%29.80 "HgN/A
6:00 AM79 °FScattered clouds.3 mph94%29.77 "HgN/A
5:00 AM79 °FPassing clouds.3 mph94%29.74 "HgN/A
4:00 AM79 °FClear.3 mph94%29.74 "Hg10 mi
3:00 AM79 °FClear.No wind100%29.74 "Hg10 mi
2:00 AM79 °FClear.No wind100%29.74 "Hg10 mi
1:00 AM81 °FClear.No wind94%29.77 "Hg10 mi
12:00 AM81 °FPassing clouds.3 mph94%29.77 "HgN/A
11:00 PM
Fri, Jul 1
82 °FPassing clouds.2 mph84%29.80 "HgN/A
10:00 PM82 °FPassing clouds.3 mph79%29.77 "HgN/A
9:00 PM82 °FPassing clouds.2 mph84%29.74 "HgN/A
8:00 PM82 °FPassing clouds.2 mph84%29.71 "HgN/A
7:00 PM84 °FPassing clouds.5 mph79%29.68 "HgN/A
6:00 PM84 °FScattered clouds.5 mph79%29.68 "HgN/A
5:00 PM86 °FScattered clouds.6 mph75%29.65 "HgN/A
4:00 PM86 °FScattered showers. Partly sunny.6 mph75%29.68 "HgN/A
3:00 PM86 °FScattered clouds.7 mph75%29.68 "HgN/A
2:00 PM84 °FBroken clouds.7 mph84%29.71 "HgN/A
1:00 PM86 °FPartly sunny.6 mph75%29.74 "HgN/A
12:00 PM86 °FScattered clouds.7 mph75%29.77 "HgN/A
Weather by CustomWeather, © 2016

See weather overviewHow to use our weather pages